Location: Eyeline Observatory
(43.2182°N, 78.8632°W)
Time: 06:59:46
(UTC-04:00)

Vanguard 1 - Visible Passes

Search period start: 22 July 2018 00:00
Search period end: 01 August 2018 00:00
Orbit: 650 x 3833 km, 34.2° (Epoch: 21 July)

Date Brightness Start Highest point End Pass type
(mag) Time Alt. Az. Time Alt. Az. Time Alt. Az.
22 Jul 11.4 04:51:23 11° SSW 04:51:46 11° SSW 04:53:12 10° S visible
22 Jul 11.1 22:08:17 10° SSW 22:13:50 20° SSE 22:15:26 18° SE visible
23 Jul 10.9 22:28:27 10° SW 22:34:43 25° SSE 22:35:46 24° SSE visible
24 Jul 10.7 22:48:59 10° SW 22:55:34 29° S 22:55:59 29° SSE visible
25 Jul 10.6 23:09:43 10° WSW 23:16:06 33° S 23:16:06 33° S visible
26 Jul 11.6 21:08:26 10° SW 21:16:58 27° SSE 21:22:29 10° ESE visible
26 Jul 10.7 23:30:37 10° WSW 23:36:09 33° SSW 23:36:09 33° SSW visible
27 Jul 11.3 21:28:52 10° SW 21:37:54 32° S 21:43:24 11° ESE visible
27 Jul 11.0 23:51:38 10° WSW 23:56:07 29° SW 23:56:07 29° SW visible
28 Jul 11.1 21:49:35 10° SW 21:58:48 37° S 22:03:18 16° ESE visible
29 Jul 11.4 00:12:42 10° WSW 00:16:01 23° SW 00:16:01 23° SW visible
29 Jul 10.9 22:10:30 10° WSW 22:19:41 40° S 22:23:10 23° ESE visible
30 Jul 11.8 00:33:53 10° WSW 00:35:53 17° WSW 00:35:53 17° WSW visible
30 Jul 10.7 22:31:34 10° WSW 22:40:31 42° S 22:42:59 30° SE visible
31 Jul 12.1 00:55:10 10° WSW 00:55:42 12° WSW 00:55:42 12° WSW visible
31 Jul 10.5 22:52:43 10° WSW 23:01:20 41° S 23:02:45 36° SSE visible
